Find Starlink 31987

NORAD ID: 60017 Int'l Des: 2024-111 Owner: SPXS Country: US Constellation: starlink operational
LEOCIRCULAR

Live Position

Loading 3D Globe...

About Starlink 31987

Description loading...

Upcoming Passes

Passes for default location (London). Set your location on the main map for personalized predictions.

Altitude History

Loading altitude history...

Two-Line Element Set

1 60017U 24111B 26126.58282707 .00000647 00000-0 33983-4 0 9996
2 60017 53.1597 166.9705 0001231 78.6792 281.4347 15.30185747107857
Epoch: May 6, 2026 • Age: 7 hours

Current Status

Altitude 475.6 km
Velocity 7.63 km/s
Sub-Earth Point 6.39°N, 161°E
Launch Date Jun 8, 2024
Age 1.9 years
Type internet

Technical Details

Classification Payload
Mass 730.00 kg
Dry Mass 700.00 kg
Total Mass 730.00 kg
Length 0.30 m
Diameter 4.10 m
Span 29.00 m
Shape Box + pan
Manufacturer SPXS
Bus Type Starlink V2M
Phase Status In Orbit
Owner/State SPXS/US

Most Searched